Time,TemperatureF,DewpointF,PressureIn,WindDirection,WindDirectionDegrees,WindSpeedMPH,WindSpeedGustMPH,Humidity,HourlyPrecipIn,Conditions,Clouds,dailyrainin,SoftwareType,DateUTC
2013-07-24 00:07:00,67.0,45.0,-100.00,SE,135,3.0,7.0,43,0.00,,,0.00,,2013-07-24 00:07:00,
2013-07-24 00:26:00,68.0,45.0,-100.00,SE,135,1.0,-999.0,43,0.00,,,0.00,,2013-07-24 00:26:00,
2013-07-24 00:58:00,71.0,46.0,-100.00,SE,125,1.0,4.0,40,0.00,,,0.00,,2013-07-24 00:58:00,
2013-07-24 01:04:00,70.0,46.0,-100.00,SE,135,2.0,4.0,43,0.00,,,0.00,,2013-07-24 01:04:00,
2013-07-24 01:14:00,67.0,48.0,-100.00,SSE,155,3.0,4.0,48,0.00,,,0.00,,2013-07-24 01:14:00,
2013-07-24 02:16:00,66.0,50.0,-100.00,South,180,1.0,3.0,55,0.00,,,0.00,,2013-07-24 02:16:00,
2013-07-24 03:13:00,64.0,50.0,-100.00,SSW,205,1.0,2.0,61,0.00,,,0.00,,2013-07-24 03:13:00,
2013-07-24 04:01:00,64.0,50.0,-100.00,SSW,205,0.0,2.0,60,0.00,,,0.00,,2013-07-24 04:01:00,
2013-07-24 04:11:00,63.0,50.0,-100.00,SSW,205,1.0,2.0,61,0.00,,,0.00,,2013-07-24 04:11:00,
2013-07-24 05:02:00,62.0,48.0,-100.00,SSW,205,0.0,1.0,61,0.00,,,0.00,,2013-07-24 05:02:00,
2013-07-24 05:11:00,62.0,50.0,-100.00,SSW,210,0.0,1.0,62,0.00,,,0.00,,2013-07-24 05:11:00,
2013-07-24 06:01:00,62.0,48.0,-100.00,SSW,210,0.0,1.0,62,0.00,,,0.00,,2013-07-24 06:01:00,
2013-07-24 06:43:00,61.0,48.0,-100.00,SW,220,1.0,2.0,64,0.00,,,0.00,,2013-07-24 06:43:00,
2013-07-24 06:53:00,61.0,48.0,-100.00,SW,220,1.0,2.0,64,0.00,,,0.00,,2013-07-24 06:53:00,
2013-07-24 07:02:00,61.0,48.0,-100.00,SW,220,1.0,2.0,64,0.00,,,0.00,,2013-07-24 07:02:00,
2013-07-24 07:12:00,61.0,48.0,-100.00,SW,220,1.0,2.0,64,0.00,,,0.00,,2013-07-24 07:12:00,
2013-07-24 08:12:00,59.0,48.0,-100.00,SW,235,0.0,1.0,69,0.00,,,0.00,,2013-07-24 08:12:00,
2013-07-24 10:12:00,58.0,50.0,-100.00,West,260,1.0,3.0,74,0.00,,,0.00,,2013-07-24 10:12:00,
2013-07-24 11:12:00,58.0,52.0,-100.00,West,270,2.0,3.0,77,0.00,,,0.00,,2013-07-24 11:12:00,
2013-07-24 12:02:00,59.0,52.0,-100.00,West,265,1.0,6.0,76,0.00,,,0.00,,2013-07-24 12:02:00,
2013-07-24 14:55:00,67.0,55.0,-100.00,SW,225,6.0,7.0,66,0.00,,,0.00,,2013-07-24 14:55:00,
2013-07-24 15:22:00,71.0,54.0,-100.00,South,180,7.0,9.0,55,0.00,,,0.00,,2013-07-24 15:22:00,
2013-07-24 16:12:00,72.0,52.0,-100.00,SSE,150,10.0,14.0,48,0.00,,,0.00,,2013-07-24 16:12:00,
2013-07-24 17:02:00,73.0,50.0,-100.00,SE,145,7.0,12.0,45,0.00,,,0.00,,2013-07-24 17:02:00,
2013-07-24 17:12:00,72.0,50.0,-100.00,SE,140,7.0,12.0,45,0.00,,,0.00,,2013-07-24 17:12:00,
2013-07-24 18:02:00,76.0,50.0,-100.00,SE,130,9.0,11.0,41,0.00,,,0.00,,2013-07-24 18:02:00,
2013-07-24 18:12:00,73.0,52.0,-100.00,SE,145,11.0,14.0,45,0.00,,,0.00,,2013-07-24 18:12:00,
2013-07-24 19:02:00,77.0,50.0,-100.00,ESE,115,7.0,11.0,38,0.00,,,0.00,,2013-07-24 19:02:00,
2013-07-24 19:12:00,75.0,50.0,-100.00,SE,130,12.0,17.0,41,0.00,,,0.00,,2013-07-24 19:12:00,
2013-07-24 20:13:00,77.0,52.0,-100.00,ESE,120,9.0,14.0,40,0.00,,,0.00,,2013-07-24 20:13:00,
2013-07-24 20:32:00,79.0,50.0,-100.00,ESE,110,10.0,19.0,36,0.00,,,0.00,,2013-07-24 20:32:00,
2013-07-24 21:02:00,76.0,50.0,-100.00,ESE,120,9.0,16.0,39,0.00,,,0.00,,2013-07-24 21:02:00,
2013-07-24 21:12:00,75.0,50.0,-100.00,ESE,120,12.0,15.0,40,0.00,,,0.00,,2013-07-24 21:12:00,
2013-07-24 22:12:00,78.0,50.0,-100.00,ESE,115,12.0,17.0,38,0.00,,,0.00,,2013-07-24 22:12:00,
2013-07-24 23:12:00,76.0,52.0,-100.00,SE,135,11.0,17.0,43,0.00,,,0.00,,2013-07-24 23:12:00,